TimeMDT,TemperatureF,Dew PointF,Humidity,Sea Level PressureIn,VisibilityMPH,Wind Direction,Wind SpeedMPH,Gust SpeedMPH,PrecipitationIn,Events,Conditions,WindDirDegrees,DateUTC
12:53 AM,63.0,46.9,56,30.35,10.0,South,8.1,-,N/A,,Clear,170,2013-08-30 06:53:00
1:53 AM,62.1,46.9,58,30.34,10.0,South,4.6,-,N/A,,Clear,190,2013-08-30 07:53:00
2:53 AM,64.9,46.9,52,29.96,10.0,Calm,Calm,-,N/A,,Clear,0,2013-08-30 08:53:00
3:53 AM,62.1,46.0,56,30.33,10.0,Calm,Calm,-,N/A,,Clear,0,2013-08-30 09:53:00
4:53 AM,62.1,46.9,58,29.96,10.0,NW,5.8,-,N/A,,Clear,320,2013-08-30 10:53:00
5:53 AM,61.0,46.0,58,29.98,10.0,North,8.1,-,N/A,,Clear,350,2013-08-30 11:53:00
6:53 AM,57.9,45.0,62,30.02,10.0,NNE,6.9,-,N/A,,Clear,30,2013-08-30 12:53:00
7:53 AM,66.9,46.0,47,30.00,10.0,NNE,6.9,-,N/A,,Clear,30,2013-08-30 13:53:00
8:53 AM,73.0,48.0,41,30.00,10.0,NNE,8.1,-,N/A,,Clear,20,2013-08-30 14:53:00
9:53 AM,80.1,43.0,27,29.99,10.0,North,10.4,-,N/A,,Clear,10,2013-08-30 15:53:00
10:53 AM,82.9,43.0,24,29.98,10.0,ENE,8.1,-,N/A,,Clear,70,2013-08-30 16:53:00
11:53 AM,84.0,41.0,22,29.97,10.0,ESE,8.1,-,N/A,,Clear,120,2013-08-30 17:53:00
12:53 PM,86.0,39.9,20,29.95,10.0,NE,5.8,-,N/A,,Clear,50,2013-08-30 18:53:00
1:53 PM,86.0,39.0,19,29.94,10.0,Variable,4.6,16.1,N/A,,Clear,0,2013-08-30 19:53:00
2:53 PM,86.0,41.0,20,29.90,10.0,South,9.2,-,N/A,,Scattered Clouds,180,2013-08-30 20:53:00
3:53 PM,89.1,39.0,17,29.88,10.0,North,6.9,-,N/A,,Scattered Clouds,10,2013-08-30 21:53:00
4:53 PM,88.0,37.0,16,29.88,10.0,East,11.5,-,N/A,,Clear,100,2013-08-30 22:53:00
5:53 PM,87.1,36.0,16,29.88,10.0,East,5.8,-,N/A,,Clear,90,2013-08-30 23:53:00
6:53 PM,82.0,42.1,24,29.91,10.0,SE,10.4,-,N/A,,Clear,140,2013-08-31 00:53:00
7:53 PM,75.0,43.0,32,29.92,10.0,SSW,8.1,-,N/A,,Clear,200,2013-08-31 01:53:00
8:53 PM,75.0,46.0,36,29.91,10.0,South,12.7,-,N/A,,Clear,170,2013-08-31 02:53:00
9:53 PM,73.0,46.9,39,29.88,10.0,SSE,12.7,-,N/A,,Clear,160,2013-08-31 03:53:00
10:53 PM,70.0,46.0,42,29.88,10.0,South,12.7,-,N/A,,Clear,170,2013-08-31 04:53:00
11:53 PM,66.0,46.0,48,29.89,10.0,South,11.5,-,N/A,,Clear,190,2013-08-31 05:53:00